Date,TemperatureHighF,TemperatureAvgF,TemperatureLowF,DewpointHighF,DewpointAvgF,DewpointLowF,HumidityHigh,HumidityAvg,HumidityLow,PressureMaxIn,PressureMinIn,WindSpeedMaxMPH,WindSpeedAvgMPH,GustSpeedMaxMPH,PrecipitationSumIn
2013-3-1,78.0,72.7,69.0,-99.9,-99.9,-99.9,0,0,100,0.00,40.00,24,17,33,0.00
2013-3-2,79.0,72.2,68.0,-99.9,-99.9,-99.9,0,0,100,0.00,40.00,20,16,32,0.02
2013-3-3,77.0,71.7,67.0,-99.9,-99.9,-99.9,0,0,100,0.00,40.00,20,14,27,0.01
2013-3-4,78.0,71.6,68.0,-99.9,-99.9,-99.9,0,0,100,0.00,40.00,21,14,28,0.00
2013-3-5,79.0,70.9,67.0,-99.9,-99.9,-99.9,0,0,100,0.00,40.00,16,12,24,0.00
2013-3-6,78.0,72.6,67.0,-99.9,-99.9,-99.9,0,0,100,0.00,40.00,17,12,22,0.00
2013-3-7,77.0,69.2,62.0,-99.9,-99.9,-99.9,0,0,100,0.00,40.00,10,6,14,0.00
2013-3-8,79.0,70.5,63.0,-99.9,-99.9,-99.9,0,0,100,0.00,40.00,14,8,22,0.02
2013-3-9,77.0,71.9,67.0,-99.9,-99.9,-99.9,0,0,100,0.00,40.00,18,9,27,0.16
2013-3-10,79.0,73.2,63.0,-99.9,-99.9,-99.9,0,0,100,0.00,40.00,15,12,21,0.01
2013-3-11,74.0,67.7,61.0,-99.9,-99.9,-99.9,0,0,100,0.00,40.00,7,6,10,0.00
2013-3-12,78.0,72.2,62.0,-99.9,-99.9,-99.9,0,0,100,0.00,40.00,16,10,24,0.00
2013-3-13,77.0,68.3,60.0,-99.9,-99.9,-99.9,0,0,100,0.00,40.00,12,8,16,0.00
2013-3-14,75.0,69.3,62.0,-99.9,-99.9,-99.9,0,0,100,0.00,40.00,9,6,13,0.00
2013-3-15,76.0,70.4,63.0,-99.9,-99.9,-99.9,0,0,100,0.00,40.00,21,13,32,0.05
2013-3-16,76.0,69.6,63.0,-99.9,-99.9,-99.9,0,0,100,0.00,40.00,14,8,18,0.00
2013-3-17,75.0,70.8,60.0,-99.9,-99.9,-99.9,0,0,100,0.00,40.00,7,6,10,0.00
2013-3-18,74.0,73.0,71.0,-99.9,-99.9,-99.9,0,0,100,0.00,40.00,8,8,12,0.01
2013-3-19,75.0,49.3,73.0,-99.9,-99.9,-99.9,0,0,100,0.00,40.00,8,4,12,0.00
2013-3-20,78.0,39.0,78.0,-99.9,-99.9,-99.9,0,0,100,0.00,40.00,8,4,12,0.00
2013-3-21,78.0,78.0,78.0,-99.9,-99.9,-99.9,0,0,100,0.00,40.00,9,8,13,0.02
2013-3-22,81.0,76.9,73.0,-99.9,-99.9,-99.9,0,0,100,0.00,40.00,13,11,17,0.11
2013-3-23,80.0,74.3,67.0,-99.9,-99.9,-99.9,0,0,100,0.00,40.00,15,12,24,0.00
2013-3-24,77.0,75.2,74.0,-99.9,-99.9,-99.9,0,0,100,0.00,40.00,17,14,25,0.01
2013-3-25,78.0,77.0,75.0,-99.9,-99.9,-99.9,0,0,100,0.00,40.00,14,12,18,0.00
2013-3-26,79.0,77.0,75.0,-99.9,-99.9,-99.9,0,0,100,0.00,40.00,9,7,14,0.10
2013-3-27,77.0,76.2,76.0,-99.9,-99.9,-99.9,0,0,100,0.00,40.00,16,11,25,0.00
2013-3-28,80.0,78.6,76.0,-99.9,-99.9,-99.9,0,0,100,0.00,40.00,21,19,29,0.00
2013-3-29,77.0,76.0,75.0,-99.9,-99.9,-99.9,0,0,100,0.00,40.00,16,16,21,0.00